Hurricane Symbol View the latest observations near Atlantic Tropical Storm Philippe.

Station LORO1 - Lorain Harbor, OH Image indicating link to RSS feed of recent meteorological observations for station LORO1


Conditions at LORO1 as of
(9:30 am EDT)
1330 GMT on 09/27/2023:
     

Click on the graph icon in the table below to see a time series plot of the last five days of that observation.

5-day plot - Wind Direction Wind Direction (WDIR): SE ( 130 deg true )
5-day plot - Wind Speed Wind Speed (WSPD): 8 kts
5-day plot - Wind Gust Wind Gust (GST): 11 kts
5-day plot - Air Temperature Air Temperature (ATMP): 61.7 °F
5-day plot - Wind Speed at 10 Meters Wind Speed at 10 meters (WSPD10M): 10 kts
5-day plot - Wind Speed at 20 Meters Wind Speed at 20 meters (WSPD20M): 10 kts
5-day plot -  Wind Speed, Wind Gust and Atmospheric Pressure Combined plot of Wind Speed, Gust, and Air Pressure
Previous observations
TIME
(EDT)
5-day plot - Wind Direction
WDIR
 
5-day plot - Wind Speed
WSPD
kts
5-day plot - Wind Gust
GST
kts
5-day plot - Wave Height
WVHT
ft
5-day plot - Dominant Wave Period
DPD
sec
5-day plot - Average Wave Period
APD
sec
5-day plot - Mean Wave Direction
MWD
 
5-day plot - Atmospheric Pressure
PRES
in
5-day plot - Pressure Tendency
PTDY
in
5-day plot - Air Temperature
ATMP
°F
5-day plot - Water Temperature
WTMP
°F
5-day plot - Dew Point
DEWP
°F
5-day plot - Salinity
SAL
psu
5-day plot - Visibility
VIS
nmi
5-day plot - Tide (above MLLW)
TIDE
ft
2023-09-27 09:20 am SE 7 10------ 61.5-----
2023-09-27 09:10 am SE 7 9------ 61.0-----
2023-09-27 09:00 am SE 5 8------ 61.0-----
2023-09-27 08:50 am SE 6 9------ 61.2-----
2023-09-27 08:40 amESE 6 8------ 60.6-----
2023-09-27 08:30 amESE 6 9------ 60.4-----
2023-09-27 08:20 amESE 5 8------ 60.4-----
2023-09-27 08:10 amESE 6 9------ 60.3-----
2023-09-27 08:00 amESE 7 9------ 60.3-----
2023-09-27 07:50 amESE 6 8------ 60.3-----
2023-09-27 07:40 amESE 6 7------ 60.3-----
2023-09-27 07:30 amESE 7 9------ 60.3-----
2023-09-27 07:20 amESE 5 8------ 60.4-----
2023-09-27 07:10 amESE 5 8------ 60.6-----
2023-09-27 07:00 amESE 5 6------ 60.6-----
2023-09-27 06:50 amESE 5 7------ 60.6-----
2023-09-27 06:40 amESE 4 7------ 60.6-----
2023-09-27 06:30 amESE 5 7------ 60.8-----
2023-09-27 06:20 amESE 5 6------ 60.6-----
2023-09-27 06:10 amESE 5 7------ 60.6-----
2023-09-27 06:00 amESE 5 7------ 60.6-----
2023-09-27 05:50 amESE 6 8------ 60.6-----
2023-09-27 05:40 amESE 6 8------ 60.6-----
2023-09-27 05:30 amESE 6 7------ 60.6-----
2023-09-27 05:20 amESE 6 7------ 60.6-----
2023-09-27 05:10 amESE 5 7------ 61.0-----
2023-09-27 05:00 amESE 5 7------ 60.6-----
2023-09-27 04:50 amESE 5 6------ 60.6-----
2023-09-27 04:40 amESE 4 6------ 60.6-----
2023-09-27 04:30 amESE 4 7------ 60.6-----
2023-09-27 04:20 amESE 5 7------ 60.6-----
2023-09-27 04:10 amESE 5 7------ 60.8-----
2023-09-27 04:00 amESE 5 7------ 60.8-----
2023-09-27 03:50 amESE 5 7------ 60.8-----
2023-09-27 03:40 amESE 5 7------ 60.6-----
2023-09-27 03:30 amESE 6 7------ 60.6-----
2023-09-27 03:20 amESE 6 8------ 60.6-----
2023-09-27 03:10 amESE 6 8------ 61.0-----
2023-09-27 03:00 am E 6 7------ 61.0-----
2023-09-27 02:50 amESE 6 8------ 61.0-----
2023-09-27 02:40 amESE 7 8------ 61.0-----
2023-09-27 02:30 am E 5 8------ 61.2-----
2023-09-27 02:20 amESE 6 8------ 61.0-----
2023-09-27 02:10 am E 7 8------ 61.0-----
2023-09-27 02:00 am E 7 8------ 61.0-----
2023-09-27 01:50 am E 6 7------ 61.0-----
2023-09-27 01:40 am E 6 7------ 60.8-----
2023-09-27 01:30 am E 6 7------ 61.0-----
2023-09-27 01:20 am E 6 8------ 60.8-----
2023-09-27 01:10 am E 7 8------ 61.0-----
2023-09-27 01:00 am E 7 8------ 61.2-----
2023-09-27 12:50 am E 7 9------ 61.0-----
2023-09-27 12:40 am E 7 10------ 61.2-----
2023-09-27 12:30 am E 7 9------ 61.3-----
2023-09-27 12:20 am E 7 8------ 61.3-----
2023-09-27 12:10 am E 7 9------ 61.3-----
2023-09-27 12:00 am E 8 9------ 61.7-----
2023-09-26 11:50 pm E 7 8------ 61.7-----
2023-09-26 11:40 pm E 7 8------ 62.2-----
2023-09-26 11:30 pm E 7 8------ 62.1-----
2023-09-26 11:20 pm E 6 7------ 62.4-----
2023-09-26 11:10 pm E 7 8------ 62.4-----
2023-09-26 11:00 pm E 7 8------ 62.6-----
2023-09-26 10:50 pm E 7 9------ 62.8-----
2023-09-26 10:40 pmESE 8 10------ 63.1-----
2023-09-26 10:30 pmESE 7 10------ 63.3-----
2023-09-26 10:20 pmESE 8 10------ 63.5-----
2023-09-26 10:10 pm E 8 10------ 63.7-----
2023-09-26 10:00 pm E 7 8------ 64.0-----
2023-09-26 09:50 pmESE 7 8------ 64.4-----
2023-09-26 09:40 pmESE 7 8------ 64.4-----
2023-09-26 09:30 pmESE 6 8------ 64.6-----
2023-09-26 09:20 pmESE 7 9------ 64.9-----
2023-09-26 09:10 pmESE 7 10------ 65.1-----
2023-09-26 09:00 pmESE 8 10------ 65.1-----
2023-09-26 08:50 pmESE 8 9------ 65.5-----
2023-09-26 08:40 pmESE 7 8------ 65.7-----
2023-09-26 08:30 pmESE 7 11------ 65.8-----
2023-09-26 08:20 pmESE 9 11------ 65.8-----
2023-09-26 08:10 pmESE 7 9------ 66.2-----
2023-09-26 08:00 pm SE 8 9------ 66.6-----
2023-09-26 07:50 pm SE 7 8------ 66.9-----
2023-09-26 07:40 pmESE 8 9------ 66.9-----
2023-09-26 07:30 pmESE 6 7------ 67.1-----
2023-09-26 07:20 pm SE 6 9------ 67.5-----
2023-09-26 07:10 pm SE 7 8------ 67.5-----
2023-09-26 07:00 pmESE 6 9------ 67.5-----
2023-09-26 06:50 pm SE 7 8------ 67.6-----
2023-09-26 06:40 pmESE 7 9------ 68.0-----
2023-09-26 06:30 pmESE 8 9------ 68.0-----
2023-09-26 06:20 pmESE 6 7------ 68.2-----
2023-09-26 06:10 pm SE 4 7------ 68.4-----
2023-09-26 06:00 pm SE 6 8------ 68.4-----
2023-09-26 05:50 pm SE 5 8------ 68.4-----
2023-09-26 05:40 pm SE 6 7------ 68.5-----
2023-09-26 05:30 pmESE 5 6------ 68.7-----
2023-09-26 05:20 pm SE 5 7------ 68.7-----
2023-09-26 05:10 pm SE 6 7------ 68.4-----
2023-09-26 05:00 pm SE 6 8------ 68.4-----
2023-09-26 04:50 pm SE 5 6------ 68.4-----
2023-09-26 04:40 pmSSE 6 8------ 68.2-----
2023-09-26 04:30 pmSSE 6 7------ 68.2-----
2023-09-26 04:20 pm SE 5 7------ 68.4-----
2023-09-26 04:10 pm SE 4 7------ 68.4-----
2023-09-26 04:00 pm SE 6 7------ 68.2-----
2023-09-26 03:50 pmESE 4 7------ 68.4-----
2023-09-26 03:40 pmSSE 5 7------ 68.2-----
2023-09-26 03:30 pmESE 5 7------ 68.4-----
2023-09-26 03:20 pm SE 5 7------ 68.4-----
2023-09-26 03:10 pmESE 6 7------ 68.0-----
2023-09-26 03:00 pmESE 5 7------ 68.0-----
2023-09-26 02:50 pmESE 6 8------ 68.0-----
2023-09-26 02:40 pmESE 7 8------ 67.8-----
2023-09-26 02:30 pm SE 6 8------ 68.0-----
2023-09-26 02:20 pmESE 6 7------ 68.2-----
2023-09-26 02:10 pmESE 6 7------ 68.0-----
2023-09-26 02:00 pm SE 6 8------ 68.0-----
2023-09-26 01:50 pm SE 6 6------ 68.0-----
2023-09-26 01:40 pm SE 4 7------ 68.4-----
2023-09-26 01:30 pm SE 6 7------ 68.0-----
2023-09-26 01:20 pm SE 4 8------ 68.0-----
2023-09-26 01:10 pm SE 6 8------ 67.6-----
2023-09-26 01:00 pm SE 6 8------ 67.8-----
2023-09-26 12:50 pmESE 6 7------ 68.0-----
2023-09-26 12:40 pmSSE 6 7------ 67.5-----
2023-09-26 12:30 pmSSE 6 8------ 67.6-----
2023-09-26 12:20 pm SE 6 7------ 67.3-----
2023-09-26 12:10 pm SE 6 7------ 67.1-----
2023-09-26 12:00 pmESE 5 7------ 67.3-----
2023-09-26 11:50 am SE 5 8------ 66.7-----
2023-09-26 11:40 am SE 5 7------ 66.6-----
2023-09-26 11:30 am SE 3 7------ 66.4-----
2023-09-26 11:20 am SE 6 7------ 66.2-----
2023-09-26 11:10 am SE 5 7------ 65.8-----
2023-09-26 11:00 am SE 5 7------ 65.5-----
2023-09-26 10:50 am SE 6 7------ 65.1-----
2023-09-26 10:40 am SE 6 7------ 64.9-----
2023-09-26 10:30 amESE 6 7------ 64.6-----
2023-09-26 10:20 amESE 5 8------ 64.8-----
2023-09-26 10:10 amESE 6 8------ 64.8-----
2023-09-26 10:00 am SE 5 7------ 64.8-----
2023-09-26 09:50 am SE 6 8------ 64.4-----